Regional Weather Roundup
Issued by NWS Charleston, SC

Current Version | Previous Version | Graphics & Text | Print | Product List | Glossary On
Versions: 1 2 3 4 5 6 7 8 9 10 11 12 13 14 15 16 17 18 19 20 21 22 23 24 25 26 27 28 29 30 31 32 33 34 35 36 37 38 39 40 41 42 43 44 45 46 47 48 49 50
000
ASUS42 KCHS 211212
RWRCHS

REGIONAL WEATHER ROUNDUP
NATIONAL WEATHER SERVICE CHARLESTON SC
800 AM EDT SAT OCT 21 2017

NOTE: "FAIR" INDICATES FEW OR NO CLOUDS BELOW 12,000 FEET WITH NO
SIGNIFICANT WEATHER AND/OR OBSTRUCTIONS TO VISIBILITY.

NOT ALL STATIONS ARE QUALITY CONTROLLED. USE DATA WITH CAUTION...
ESPECIALLY DEWPOINT OBSERVATIONS.

SCZ027-030-031-034>040-042>050-211300-
...SOUTHEAST SOUTH CAROLINA...

CITY           SKY/WX    TMP DP  RH WIND       PRES   REMARKS
N CHARLESTON   PTCLDY    56  55  97 CALM      30.26R
6HR MIN TEMP:  53; 6HR MAX TEMP:  57;

WATERFRONT PRK NOT AVBL
JOHNS ISLAND   FAIR      61  59  94 CALM      30.26R
PINOPOLIS        N/A     64  61  88 NE5       30.17R
MONCKS CORNER  FAIR      52  50  93 CALM      30.27R
SUMMERVILLE    PTSUNNY   50  48  93 CALM      30.28R FOG
BEAUFORT MCAS  CLEAR     59  58  96 MISG      30.26R
6HR MIN TEMP:  56; 6HR MAX TEMP:  61;

BEAUFORT ARPT  FAIR      61  59  94 NE3       30.25R
HILTON HEAD IS CLEAR     61  61 100 N6          N/A
WALTERBORO     SUNNY     46  45  93 CALM      30.28R
ALLENDALE        N/A     48  48 100 CALM        N/A

...SOUTHERN MIDLANDS AND PEE DEE...

CITY           SKY/WX    TMP DP  RH WIND       PRES   REMARKS
GEORGETOWN     FAIR      52  52 100 CALM      30.29R
KINGSTREE      FAIR      46  46 100 CALM      30.29R
ORANGEBURG     CLEAR     49  48  97 CALM      30.29R
6HR MIN TEMP:  49; 6HR MAX TEMP:  52;

BARNWELL         N/A     48  46  93 CALM      30.28R
AIKEN          PTSUNNY   46  45  93 CALM      30.32R
MANNING        HAZE      50  43  76 MISG      30.28R VSB<1/4
COLUMBIA       PTCLDY    48  47  96 SW3       30.29R
6HR MIN TEMP:  47; 6HR MAX TEMP:  52;

SUMTER         CLEAR     49  46  89 CALM      30.27R
6HR MIN TEMP:  49; 6HR MAX TEMP:  53; 6HR PCP: TRACE;

FLORENCE       PTCLDY    50  48  93 CALM      30.30R
6HR MIN TEMP:  48; 6HR MAX TEMP:  53;

MYRTLE BEACH   CLEAR     57  54  89 N5        30.29R
N MYRTLE BEACH CLEAR     54  54 100 N5        30.28R
6HR MIN TEMP:  51; 6HR MAX TEMP:  55;


$$

GAZ063-065-086>088-099>101-113>116-118-119-134>141-150-211300-
...SOUTHEAST GEORGIA...

CITY           SKY/WX    TMP DP  RH WIND       PRES   REMARKS
SAVANNAH ARPT  PTCLDY    58  58 100 N3        30.25R
6HR MIN TEMP:  57; 6HR MAX TEMP:  60;

HUNTER AAF     CLEAR     61  59  93 N3        30.22R
6HR MIN TEMP:  60; 6HR MAX TEMP:  62;

FORT STEWART   CLEAR     60  58  92 CALM      30.22R
6HR MIN TEMP:  58; 6HR MAX TEMP:  61;

STATESBORO     PTCLDY    51  51 100 CALM      30.26R
SYLVANIA       SUNNY     51  51 100 CALM      30.27R FOG
CLAXTON        FAIR      52  51  98 CALM      30.25R

...CSRA...CENTRAL AND FAR SOUTHEAST GEORGIA...

CITY           SKY/WX    TMP DP  RH WIND       PRES   REMARKS
THOMSON        CLOUDY    44  43  95 CALM      30.33S
AUGUSTA-BUSH   PTCLDY    47  45  93 CALM      30.28R
6HR MIN TEMP:  47; 6HR MAX TEMP:  50;

AUGUSTA-DANIEL CLOUDY    56  51  84 N3        30.28R
SWAINSBORO     FOG       54  54 100 MISG      30.26S VSB 1/2
VIDALIA        CLOUDY    55  55 100 CALM      30.24S
EASTMAN        FAIR      50  50 100 CALM      30.27R
HAZLEHURST     FAIR      62  59  89 E5        30.22S
ALMA           PTCLDY    63  59  87 CALM      30.22R
6HR MIN TEMP:  61; 6HR MAX TEMP:  63;

WAYCROSS       MOCLDY    64  60  90 CALM      30.21R
JESUP          NOT AVBL
BAXLEY         FAIR      59  59 100 NE5       30.22S
BRUNSWICK      PTCLDY    66  63  88 NE3       30.22R
SAINT SIMONS   CLOUDY    68  66  93 N5        30.20R
6HR MIN TEMP:  68; 6HR MAX TEMP:  74;


$$

SCZ027-028-034-036>038-045-046-048>050-GAZ119-141-211300-
...LAKE AND SUPPLEMENTAL COASTAL OBSERVATIONS...

STATION/POSITION TIME  TEMP    WIND        PRES    WAVE   SWELL
                       AIR SEA DIR/SP/G            HT/PER HT/PER/DIR
                 (UTC) (F)     (DEG/KT/KT) (MB)    (FT/S) (FT/S/D)
WINYAH BAY       NOT AVBL
LAKE MURRAY      1120   54        CALM     1024.7R
ACE BASIN NERRS  1045   58        CALM     1024.0
FORT PULASKI     1148   68 73   20/  6/  7 1024.3R
SAPELO ISLAND    NOT AVBL

$$

ANZ835-935-AMZ111-154-330-350-352-354-370-450-454-472-211300-
...C-MAN AND BUOY OBSERVATIONS...

STATION/POSITION TIME  TEMP    WIND        PRES    WAVE   SWELL
                       AIR SEA DIR/SP/G            HT/PER HT/PER/DIR
                 (UTC) (F)     (DEG/KT/KT) (MB)    (FT/S) (FT/S/D)
BUOY 41004       1150   75 80   30/ 12/ 16 1023.1R   3/ 8   2/110/ 8
BUOY 41008       1150   77 77   70/ 10/ 12 1022.4R   4/ 9   3/120/ 9
FOLLY BEACH CMAN 1100   65     350/  5/  7 1024.4R
CAPERS NEARSHORE 1108   67 73   30/ 10/ 12 1023.5R
FRIPP NEARSHORE  1108   72      20/ 10/ 12   N/A


STATION/POSITION TIME  TEMP    WIND        PRES    WAVE   SWELL
                       AIR SEA DIR/SP/G            HT/PER HT/PER/DIR
                 (UTC) (F)     (DEG/KT/KT) (MB)    (FT/S) (FT/S/D)
5E ST. MARYS GA  1130      77                N/A     4/ 6
FRYING PAN BUOY  1150   73 76   50/  8/ 12 1024.4R   3/ 8   3/100/ 8
BUOY 41025       1150   73 80  360/ 10/ 12 1024.7R   3/ 8   3/130/ 8
CAPE LOOKOUT NC  1100   66      10/  6/  7 1024.7R
BUOY 41002       1150   76 80   60/ 12/ 16 1023.2R   4/ 8   3/ 70/ 8
BUOY 41010       NOT AVBL
ST AUGUSTINE FL  1200   78 77   90/ 14/ 16 1021.6R


$$




USA.gov is the U.S. government's official web portal to all federal, state and local government web resources and services.